This is the latest recevied weather packets stored in our database for station/object K42C. If no packets are shown the sender has not sent any weather packets the latest 1 day(s).
| Time | Temp. | Humidity | Pressure | Rain* | Wind** | Luminosity | Snow |
|---|---|---|---|---|---|---|---|
| 1778026195 | 10.56° C | 46% | 971.8 hPa | 0 mm | 0.89 m/s, 242° | - | - |
| 1778025798 | 10.56° C | 46% | 971.6 hPa | 0 mm | 0.89 m/s, 305° | - | - |
| 1778025397 | 11.11° C | 46% | 971.6 hPa | 0 mm | 2.24 m/s, 284° | - | - |
| 1778024999 | 11.11° C | 46% | 971.5 hPa | 0 mm | 1.34 m/s, 302° | - | - |
| 1778024598 | 11.11° C | 47% | 971.4 hPa | 0 mm | 2.68 m/s, 301° | - | - |
| 1778024201 | 11.67° C | 47% | 971.3 hPa | 0 mm | 1.34 m/s, 307° | - | - |
| 1778023800 | 11.67° C | 47% | 971.3 hPa | 0 mm | 1.34 m/s, 316° | - | - |
| 1778023403 | 11.67° C | 47% | 971.1 hPa | 0 mm | 0.45 m/s, 301° | - | - |
| 1778023002 | 11.67° C | 47% | 971.1 hPa | 0 mm | 0 m/s | - | - |
| 1778022604 | 11.67° C | 46% | 971 hPa | 0 mm | 2.68 m/s, 297° | - | - |
| 1778022203 | 11.67° C | 47% | 971 hPa | 0 mm | 0 m/s | - | - |
| 1778021806 | 11.67° C | 47% | 971 hPa | 0 mm | 0.45 m/s, 307° | - | - |
| 1778021405 | 11.67° C | 47% | 970.9 hPa | 0 mm | 0.45 m/s, 307° | - | - |
| 1778021008 | 11.67° C | 47% | 970.8 hPa | 0 mm | 1.79 m/s, 263° | - | - |
| 1778020607 | 12.22° C | 47% | 970.9 hPa | 0 mm | 1.79 m/s, 242° | - | - |
| 1778020216 | 12.22° C | 48% | 970.7 hPa | 0 mm | 2.68 m/s, 309° | - | - |
| 1778019808 | 12.22° C | 47% | 970.8 hPa | 0 mm | 1.79 m/s, 332° | - | - |
| 1778019411 | 12.22° C | 47% | 970.8 hPa | 0 mm | 2.68 m/s, 323° | - | - |
| 1778019011 | 12.22° C | 48% | 970.7 hPa | 0 mm | 0 m/s | - | - |
| 1778018613 | 12.22° C | 47% | 970.7 hPa | 0 mm | 0.45 m/s, 253° | - | - |
| 1778018212 | 12.22° C | 47% | 970.7 hPa | 0 mm | 3.58 m/s, 215° | - | - |
| 1778017815 | 12.78° C | 47% | 971 hPa | 0 mm | 3.13 m/s, 266° | - | - |
| 1778017414 | 12.78° C | 47% | 971 hPa | 0 mm | 0.45 m/s, 263° | - | - |
| 1778017016 | 12.22° C | 47% | 971 hPa | 0 mm | 2.24 m/s, 281° | - | - |
| 1778016615 | 12.22° C | 47% | 970.9 hPa | 0 mm | 2.24 m/s, 267° | - | - |
* Rain latest hour (hover to see other rain measurements)
** Current wind speed in m/s (hover to see current wind gust speed)